This is the latest recevied weather packets stored in our database for station/object EB1BCG-1. If no packets are shown the sender has not sent any weather packets the latest 10 day(s).
| Time | Temp. | Humidity | Pressure | Rain* | Wind** | Luminosity | Snow |
|---|---|---|---|---|---|---|---|
| 1777514397 | 10° C | 99% | 1013.3 hPa | 0.51 mm | 0 m/s | - | - |
| 1777513788 | 10° C | 99% | 1013.2 hPa | 0.51 mm | 0 m/s | - | - |
| 1777513181 | 10.56° C | 99% | 1013.2 hPa | 0.51 mm | 0 m/s | - | - |
| 1777512577 | 10.56° C | 99% | 1013.1 hPa | 0.51 mm | 0 m/s | - | - |
| 1777511967 | 10.56° C | 99% | 1013.2 hPa | 1.52 mm | 0 m/s | - | - |
| 1777510759 | 10.56° C | 99% | 1013.2 hPa | 1.02 mm | 0 m/s | - | - |
| 1777510149 | 10.56° C | 99% | 1013.3 hPa | 1.02 mm | 0 m/s | - | - |
| 1777509542 | 10.56° C | 99% | 1013.3 hPa | 1.02 mm | 0 m/s | - | - |
| 1777508937 | 11.11° C | 99% | 1013.1 hPa | 1.02 mm | 0 m/s | - | - |
| 1777508397 | 11.11° C | 99% | 1013.1 hPa | 0 mm | 0 m/s | - | - |
| 1777507182 | 11.67° C | 99% | 1013.1 hPa | 0 mm | 0 m/s | - | - |
| 1777506577 | 11.67° C | 99% | 1012.9 hPa | 0 mm | 0 m/s | - | - |
| 1777505968 | 11.67° C | 99% | 1012.8 hPa | 0 mm | 0 m/s | - | - |
| 1777505362 | 11.67° C | 99% | 1013 hPa | 0 mm | 0 m/s | - | - |
| 1777504757 | 11.67° C | 99% | 1013 hPa | 0 mm | 0 m/s | - | - |
| 1777504148 | 11.67° C | 99% | 1012.9 hPa | 0 mm | 0 m/s | - | - |
| 1777503541 | 11.67° C | 99% | 1013 hPa | 0 mm | 0 m/s | - | - |
| 1777502937 | 11.67° C | 99% | 1013 hPa | 0 mm | 0 m/s | - | - |
| 1777501723 | 11.67° C | 99% | 1012.8 hPa | 0.51 mm | 0 m/s | - | - |
| 1777501117 | 11.67° C | 99% | 1012.5 hPa | 0.51 mm | 0 m/s | - | - |
| 1777500507 | 11.67° C | 99% | 1012.5 hPa | 0.51 mm | 0 m/s | - | - |
| 1777499900 | 11.67° C | 99% | 1012.7 hPa | 1.02 mm | 0 m/s | - | - |
| 1777499297 | 11.67° C | 99% | 1012.9 hPa | 1.02 mm | 0 m/s | - | - |
| 1777498757 | 12.22° C | 99% | 1013 hPa | 0.51 mm | 0 m/s | - | - |
| 1777498146 | 11.67° C | 99% | 1012.6 hPa | 0.51 mm | 0 m/s | - | - |
* Rain latest hour (hover to see other rain measurements)
** Current wind speed in m/s (hover to see current wind gust speed)